VA7GFZ-13 Weather Reports


Display with metric or nautical units.
time (UTC)temp
F
wind
direction
speed
MPH
gust
MPH
rain 1hr
in
rain 24hr
in
rain mn
in
humidity
%
barometer
mb
20260506041036 57 178 0.0 0.0 0.00 0.00 0.00 100
20260506040036 59 178 0.0 2.0 0.00 0.00 0.00 100
20260506035036 55 215 0.0 0.0 0.00 0.00 0.00 100
20260506034039 57 215 0.0 0.0 0.00 0.00 0.00 100
20260506032038 61 215 0.0 0.0 0.00 0.00 0.00 100
20260506025038 64 161 0.0 0.0 0.00 0.00 0.00 100
20260506021036 68 196 4.0 6.0 0.00 0.00 0.00 100
20260506020036 69 150 0.0 6.0 0.00 0.00 0.00 100
20260506015037 70 237 0.0 4.0 0.00 0.00 0.00 100
20260506010038 72 202 0.0 2.0 0.00 0.00 0.00 100
20260506002040 73 201 0.0 0.0 0.00 0.00 0.00 100
20260506001037 73 171 0.0 3.0 0.00 0.00 0.00 100
20260505232040 76 199 0.0 0.0 0.00 0.00 0.00 100
20260505225040 76 213 0.0 3.0 0.00 0.00 0.00 100
20260505224037 75 154 0.0 0.0 0.00 0.00 0.00 100
20260505222036 77 192 3.0 5.0 0.00 0.00 0.00 100
20260505215036 75 191 0.0 3.0 0.00 0.00 0.00 100
20260505212040 75 178 0.0 0.0 0.00 0.00 0.00 100
20260505205039 76 29 0.0 0.0 0.00 0.00 0.00 100
20260505202039 74 29 0.0 0.0 0.00 0.00 0.00 100
20260505195036 70 29 0.0 0.0 0.00 0.00 0.00 100
20260505194036 69 29 0.0 0.0 0.00 0.00 0.00 100
20260505192039 68 29 0.0 0.0 0.00 0.00 0.00 100
20260505191036 68 29 0.0 0.0 0.00 0.00 0.00 100
20260505185036 65 29 0.0 0.0 0.00 0.00 0.00 100
20260505184036 64 29 0.0 0.0 0.00 0.00 0.00 100
20260505182037 62 29 0.0 0.0 0.00 0.00 0.00 100
20260505181037 60 29 0.0 0.0 0.00 0.00 0.00 100
20260505175039 57 29 0.0 0.0 0.00 0.00 0.00 100
20260505174037 56 29 0.0 0.0 0.00 0.00 0.00 100
20260505173039 54 29 0.0 0.0 0.00 0.00 0.00 100
20260505172037 53 29 0.0 0.0 0.00 0.00 0.00 100
20260505171037 52 29 0.0 0.0 0.00 0.00 0.00 100
20260505165037 50 29 0.0 0.0 0.00 0.00 0.00 100
20260505164037 50 29 0.0 0.0 0.00 0.00 0.00 100
20260505152039 45 29 0.0 0.0 0.00 0.00 0.00 100
20260505125037 31 29 0.0 0.0 0.00 0.00 0.00 100
20260505124037 32 29 0.0 0.0 0.00 0.00 0.00 100
20260505122041 31 29 0.0 0.0 0.00 0.00 0.00 100
20260505120040 32 29 0.0 0.0 0.00 0.00 0.00 100
20260505115039 32 29 0.0 0.0 0.00 0.00 0.00 100
20260505112037 32 29 0.0 0.0 0.00 0.00 0.00 100
20260505111037 32 29 0.0 0.0 0.00 0.00 0.00 100
20260505102037 34 29 0.0 0.0 0.00 0.00 0.00 100
20260505101037 35 29 0.0 0.0 0.00 0.00 0.00 100
20260505100037 36 29 0.0 0.0 0.00 0.00 0.00 100
20260505095037 36 29 0.0 0.0 0.00 0.00 0.00 100
20260505093038 36 29 0.0 0.0 0.00 0.00 0.00 100
20260505092037 37 29 0.0 0.0 0.00 0.00 0.00 100
20260505091037 37 29 0.0 0.0 0.00 0.00 0.00 100
20260505085038 37 29 0.0 0.0 0.00 0.00 0.00 100
20260505084038 39 29 0.0 0.0 0.00 0.00 0.00 100
20260505082038 40 29 0.0 0.0 0.00 0.00 0.00 100
20260505081038 41 29 0.0 0.0 0.00 0.00 0.00 100
20260505080040 42 29 0.0 0.0 0.00 0.00 0.00 100
20260505075040 42 29 0.0 0.0 0.00 0.00 0.00 100
20260505074038 43 29 0.0 0.0 0.00 0.00 0.00 100
20260505073040 45 29 0.0 0.0 0.00 0.00 0.00 100
20260505072038 46 29 0.0 0.0 0.00 0.00 0.00 100
20260505065038 50 305 0.0 0.0 0.00 0.00 0.00 100
20260505063040 49 305 0.0 0.0 0.00 0.00 0.00 100
20260505062038 50 305 0.0 0.0 0.00 0.00 0.00 100
20260505060040 51 305 0.0 0.0 0.00 0.00 0.00 100
20260505055040 50 305 0.0 0.0 0.00 0.00 0.00 100
20260505054041 49 305 0.0 0.0 0.00 0.00 0.00 100
20260505053040 49 305 0.0 0.0 0.00 0.00 0.00 100
20260505051040 52 305 0.0 0.0 0.00 0.00 0.00 100